When you browse on this site, cookies collect data to enhance your experience and personalize the content and advertising you see.
Visit our Privacy Policy to learn more. By continuing to use the site, you agree to this use of cookies and data.
  • In Deutschland
  • Länderverzeichnis
  • Für 7 Tage
  • Wassertemperatur
  • Satellitenkarten
  • Wetterkarte
  • Widgets
  • user-avatar
    Anmelden

    Stündliche Wetter Goldene Küste

    Heute, 26 März, Dienstag

    Zeit Temperatur Niederschläge Wind Luftdruck Luftfeuchtigkeit
    00:00 +26°C° 0 mm 4 m/S 757 mmHg 87%
    01:00 +26°C° 0 mm 4 m/S 757 mmHg 88%
    02:00 +26°C° 0 mm 4 m/S 757 mmHg 89%
    03:00 +25°C° 0 mm 3 m/S 757 mmHg 90%
    04:00 +25°C° 0 mm 3 m/S 757 mmHg 89%
    05:00 +25°C° 0 mm 3 m/S 757 mmHg 88%
    06:00 +26°C° 0 mm 3 m/S 757 mmHg 86%
    07:00 +26°C° 0 mm 3 m/S 757 mmHg 84%
    08:00 +26°C° 0 mm 3 m/S 757 mmHg 81%
    09:00 +27°C° 0 mm 2 m/S 757 mmHg 78%
    10:00 +28°C° 0 mm 2 m/S 757 mmHg 75%
    11:00 +28°C° 0 mm 2 m/S 757 mmHg 75%
    12:00 +28°C° 0 mm 2 m/S 757 mmHg 75%
    13:00 +28°C° 0 mm 1 m/S 757 mmHg 74%
    14:00 +27°C° 0.4 mm 1 m/S 757 mmHg 80%
    15:00 +26°C° 0.4 mm 1 m/S 757 mmHg 85%
    16:00 +25°C° 0.4 mm 1 m/S 757 mmHg 90%
    17:00 +25°C° 0.1 mm 1 m/S 757 mmHg 90%
    18:00 +24°C° 0.1 mm 1 m/S 757 mmHg 90%
    19:00 +24°C° 0.1 mm 1 m/S 758 mmHg 90%
    20:00 +24°C° 0 mm 1 m/S 758 mmHg 90%
    21:00 +24°C° 0 mm 1 m/S 759 mmHg 89%
    22:00 +24°C° 0 mm 1 m/S 759 mmHg 89%
    23:00 +24°C° 0 mm 2 m/S 759 mmHg 89%

    Morgen, 27 März, Mittwoch

    Zeit Temperatur Niederschläge Wind Luftdruck Luftfeuchtigkeit
    00:00 +24°C° 0 mm 2 m/S 759 mmHg 89%
    01:00 +24°C° 0 mm 3 m/S 759 mmHg 89%
    02:00 +24°C° 0 mm 3 m/S 759 mmHg 89%
    03:00 +23°C° 0 mm 4 m/S 758 mmHg 89%
    04:00 +23°C° 0 mm 4 m/S 758 mmHg 89%
    05:00 +23°C° 0.4 mm 5 m/S 759 mmHg 87%
    06:00 +23°C° 0.4 mm 6 m/S 759 mmHg 85%
    07:00 +23°C° 0.4 mm 6 m/S 760 mmHg 84%
    08:00 +23°C° 0.1 mm 6 m/S 760 mmHg 79%
    09:00 +24°C° 0.1 mm 6 m/S 760 mmHg 74%
    10:00 +26°C° 0.1 mm 7 m/S 760 mmHg 69%
    11:00 +24°C° 0.2 mm 6 m/S 760 mmHg 73%
    12:00 +24°C° 0.2 mm 6 m/S 760 mmHg 76%
    13:00 +24°C° 0.2 mm 6 m/S 760 mmHg 80%
    14:00 +23°C° 0.8 mm 5 m/S 759 mmHg 84%
    15:00 +23°C° 0.8 mm 5 m/S 759 mmHg 88%
    16:00 +22°C° 0.8 mm 5 m/S 759 mmHg 92%
    17:00 +22°C° 1.6 mm 5 m/S 759 mmHg 93%
    18:00 +22°C° 1.6 mm 5 m/S 760 mmHg 94%
    19:00 +22°C° 1.6 mm 6 m/S 760 mmHg 94%
    20:00 +22°C° 2.1 mm 6 m/S 760 mmHg 94%
    21:00 +22°C° 2.1 mm 6 m/S 760 mmHg 95%
    22:00 +22°C° 2.1 mm 5 m/S 760 mmHg 95%
    23:00 +22°C° 2.3 mm 6 m/S 760 mmHg 95%

    übermorgen, 28 März, Donnerstag

    Zeit Temperatur Niederschläge Wind Luftdruck Luftfeuchtigkeit
    00:00 +22°C° 2.3 mm 6 m/S 759 mmHg 95%
    01:00 +22°C° 2.3 mm 6 m/S 759 mmHg 95%
    02:00 +22°C° 2.4 mm 6 m/S 759 mmHg 95%
    03:00 +21°C° 2.4 mm 6 m/S 758 mmHg 95%
    04:00 +21°C° 2.4 mm 6 m/S 758 mmHg 95%
    05:00 +21°C° 2.5 mm 6 m/S 758 mmHg 95%
    06:00 +21°C° 2.5 mm 6 m/S 759 mmHg 95%
    07:00 +21°C° 2.5 mm 6 m/S 759 mmHg 95%
    08:00 +21°C° 1.8 mm 6 m/S 759 mmHg 95%
    09:00 +22°C° 1.8 mm 5 m/S 759 mmHg 95%
    10:00 +22°C° 1.8 mm 5 m/S 759 mmHg 95%
    11:00 +22°C° 1.7 mm 4 m/S 759 mmHg 95%
    12:00 +22°C° 1.7 mm 4 m/S 758 mmHg 95%
    13:00 +22°C° 1.7 mm 3 m/S 758 mmHg 94%
    14:00 +22°C° 0.5 mm 3 m/S 757 mmHg 94%
    15:00 +22°C° 0.5 mm 3 m/S 757 mmHg 94%
    16:00 +22°C° 0.5 mm 3 m/S 756 mmHg 94%
    17:00 +22°C° 0.1 mm 3 m/S 757 mmHg 94%
    18:00 +22°C° 0.1 mm 3 m/S 757 mmHg 93%
    19:00 +22°C° 0.1 mm 3 m/S 757 mmHg 93%
    20:00 +22°C° 0.1 mm 3 m/S 757 mmHg 94%
    21:00 +22°C° 0.1 mm 3 m/S 757 mmHg 94%
    22:00 +23°C° 0.1 mm 2 m/S 757 mmHg 94%
    23:00 +23°C° 0.2 mm 2 m/S 757 mmHg 94%

    29 März, Freitag

    Zeit Temperatur Niederschläge Wind Luftdruck Luftfeuchtigkeit
    00:00 +23°C° 0.2 mm 2 m/S 757 mmHg 95%
    01:00 +21°C° 0.2 mm 2 m/S 756 mmHg 95%
    02:00 +21°C° 0.4 mm 2 m/S 756 mmHg 96%
    03:00 +21°C° 0.4 mm 2 m/S 756 mmHg 96%
    04:00 +21°C° 0.4 mm 2 m/S 755 mmHg 97%
    05:00 +21°C° 0.1 mm 2 m/S 756 mmHg 96%
    06:00 +23°C° 0.1 mm 2 m/S 756 mmHg 95%
    07:00 +23°C° 0.1 mm 2 m/S 756 mmHg 94%
    08:00 +25°C° 0.1 mm 2 m/S 756 mmHg 86%
    09:00 +26°C° 0.1 mm 2 m/S 756 mmHg 78%
    10:00 +28°C° 0.1 mm 2 m/S 756 mmHg 70%
    11:00 +28°C° 0.7 mm 2 m/S 756 mmHg 74%
    12:00 +28°C° 0.7 mm 2 m/S 755 mmHg 77%
    13:00 +28°C° 0.7 mm 2 m/S 754 mmHg 80%
    14:00 +27°C° 0.5 mm 2 m/S 754 mmHg 82%
    15:00 +27°C° 0.5 mm 2 m/S 753 mmHg 84%
    16:00 +27°C° 0.5 mm 3 m/S 753 mmHg 85%
    17:00 +26°C° 0.3 mm 3 m/S 753 mmHg 87%
    18:00 +25°C° 0.3 mm 3 m/S 754 mmHg 90%
    19:00 +25°C° 0.3 mm 3 m/S 754 mmHg 92%
    20:00 +24°C° 0.5 mm 3 m/S 754 mmHg 92%
    21:00 +24°C° 0.5 mm 3 m/S 754 mmHg 93%
    22:00 +24°C° 0.5 mm 3 m/S 754 mmHg 94%
    23:00 +24°C° 0.2 mm 3 m/S 754 mmHg 94%

    30 März, Samstag

    Zeit Temperatur Niederschläge Wind Luftdruck Luftfeuchtigkeit
    00:00 +23°C° 0.2 mm 4 m/S 753 mmHg 94%
    01:00 +25°C° 0.2 mm 4 m/S 753 mmHg 94%
    02:00 +23°C° 0.3 mm 4 m/S 753 mmHg 94%
    03:00 +23°C° 0.3 mm 4 m/S 752 mmHg 94%
    04:00 +23°C° 0.3 mm 4 m/S 752 mmHg 94%
    05:00 +23°C° 0.3 mm 4 m/S 752 mmHg 94%
    06:00 +23°C° 0.3 mm 4 m/S 752 mmHg 94%
    07:00 +24°C° 0.3 mm 3 m/S 752 mmHg 95%
    08:00 +26°C° 0.2 mm 4 m/S 752 mmHg 89%
    09:00 +27°C° 0.2 mm 5 m/S 752 mmHg 83%
    10:00 +28°C° 0.2 mm 6 m/S 752 mmHg 78%
    11:00 +27°C° 1.2 mm 5 m/S 752 mmHg 83%
    12:00 +26°C° 1.2 mm 4 m/S 751 mmHg 88%
    13:00 +25°C° 1.2 mm 4 m/S 750 mmHg 93%
    14:00 +26°C° 1.6 mm 4 m/S 750 mmHg 93%
    15:00 +26°C° 1.6 mm 4 m/S 750 mmHg 93%
    16:00 +26°C° 1.6 mm 3 m/S 750 mmHg 92%
    17:00 +26°C° 3.6 mm 3 m/S 751 mmHg 93%
    18:00 +25°C° 3.6 mm 2 m/S 751 mmHg 94%
    19:00 +25°C° 3.6 mm 2 m/S 752 mmHg 94%
    20:00 +24°C° 2.6 mm 3 m/S 752 mmHg 94%
    21:00 +21°C° 2.6 mm 4 m/S 752 mmHg 95%
    22:00 +20°C° 2.6 mm 6 m/S 753 mmHg 95%
    23:00 +21°C° 1.7 mm 6 m/S 753 mmHg 94%

    31 März, Sonntag

    Zeit Temperatur Niederschläge Wind Luftdruck Luftfeuchtigkeit
    00:00 +21°C° 1.7 mm 7 m/S 753 mmHg 94%
    01:00 +21°C° 1.7 mm 7 m/S 753 mmHg 93%
    02:00 +21°C° 0.2 mm 7 m/S 753 mmHg 91%
    03:00 +21°C° 0.2 mm 8 m/S 753 mmHg 89%
    04:00 +21°C° 0.2 mm 8 m/S 754 mmHg 87%
    05:00 +21°C° 0 mm 8 m/S 754 mmHg 86%
    06:00 +21°C° 0 mm 8 m/S 755 mmHg 84%
    07:00 +21°C° 0 mm 8 m/S 756 mmHg 83%
    08:00 +22°C° 0 mm 8 m/S 756 mmHg 78%
    09:00 +23°C° 0 mm 7 m/S 757 mmHg 74%
    10:00 +23°C° 0 mm 7 m/S 757 mmHg 69%
    11:00 +24°C° 0 mm 7 m/S 757 mmHg 65%
    12:00 +26°C° 0 mm 7 m/S 756 mmHg 61%
    13:00 +27°C° 0 mm 7 m/S 756 mmHg 57%
    14:00 +27°C° 0.1 mm 7 m/S 756 mmHg 60%
    15:00 +26°C° 0.1 mm 6 m/S 756 mmHg 64%
    16:00 +24°C° 0.1 mm 6 m/S 756 mmHg 67%
    17:00 +23°C° 0 mm 6 m/S 757 mmHg 71%
    18:00 +22°C° 0 mm 5 m/S 758 mmHg 74%
    19:00 +21°C° 0 mm 5 m/S 758 mmHg 78%
    20:00 +21°C° 0 mm 5 m/S 758 mmHg 80%
    21:00 +20°C° 0 mm 5 m/S 759 mmHg 81%
    22:00 +20°C° 0 mm 5 m/S 759 mmHg 82%
    23:00 +20°C° 0 mm 5 m/S 759 mmHg 83%
    Mehr zeigen